Regional Weather Roundup
Issued by NWS

Home | Current Version | Previous Version | Graphics & Text | Print | Product List | Glossary On
Versions: 1 2 3 4 5 6 7 8 9 10 11 12 13 14 15 16 17 18 19 20 21 22 23 24 25 26 27 28 29 30 31 32 33 34 35 36 37 38 39 40 41 42 43 44 45 46 47 48 49 50
000
ASUS43 KMPX 190710
RWRMN
WEATHER ROUNDUP FOR MINNESOTA
NATIONAL WEATHER SERVICE TWIN CITIES/CHANHASSEN MN
100 AM CST THU JAN 19 2017


NOTE: "FAIR" INDICATES FEW OR NO CLOUDS BELOW 12,000 FEET WITH NO
SIGNIFICANT WEATHER AND/OR OBSTRUCTIONS TO VISIBILITY. N/A MEANS
CURRENT SKY AND/OR WEATHER CONDITIONS ARE NOT AVAILABLE.

MNZ060>063-068>070-190800-
   Twin Cities Metro

CITY           SKY/WX    TMP DP  RH WIND       PRES   REMARKS
TWIN CITIES    CLOUDY    31  29  92 SE6       29.82F WCI  25
ST PAUL        CLOUDY    30  30 100 SE3       29.84F FOG
CRYSTAL        CLOUDY    30  27  88 SE6       29.80S FOG     WCI  24
BLAINE         CLOUDY    34  34 100 S7        29.81S FOG     WCI  28
LAKEVILLE      CLOUDY    34  34 100 S10       29.82F WCI  26
EDEN PRAIRIE   CLOUDY    36  32  85 S8        29.80F
SOUTH ST PAUL  FOG       28  28  98 CALM      29.84F VSB 3/4
LAKE ELMO      FAIR      32  32 100 S7        29.84S FOG     WCI  26
$$
MNZ001>005-007-008-013>017-022>024-027-028-190800-
   Northwest Minnesota

CITY           SKY/WX    TMP DP  RH WIND       PRES   REMARKS
BEMIDJI        CLOUDY    25  21  85 S6        29.66F WCI  18
HALLOCK        CLOUDY    27  21  80 S20       29.56F WCI  13
ROSEAU         CLOUDY    30  25  80 S9        29.60S WCI  22
WARROAD        CLOUDY    30  25  80 S5        29.61F WCI  25
THIEF RVR FALL CLOUDY    29  24  82 S13       29.63F WCI  19
CROOKSTON      CLOUDY    28  25  86 S13       29.64F WCI  18
FOSSTON        CLOUDY    27  19  74 S10       29.64F WCI  17
DETROIT LAKES  CLOUDY    28  27  93 SE7       29.66F WCI  21
MOORHEAD       CLOUDY    27  25  93 S12       29.66F WCI  16
PARK RAPIDS    CLOUDY    22  19  89 SE9       29.67F FOG     WCI  12
MAHNOMEN       FAIR      28  22  77 SE10      29.64F WCI  19
$$
MNZ006-009>011-018-025>026-190800-
   North Central Minnesota

CITY           SKY/WX    TMP DP  RH WIND       PRES   REMARKS
BAUDETTE       CLOUDY    30  22  72 S6        29.63R WCI  24
FLAG ISLAND    CLOUDY    19  18  93 SE9       29.60F WCI   9
INTL FALLS     CLOUDY    27  21  78 SE5       29.67S WCI  22
WASKISH        CLOUDY    32  25  74 CALM      29.65S
BIG FORK       CLOUDY    30  25  80 S5        29.69F WCI  25
LONGVILLE      CLOUDY    27  27 100 SE6       29.71F FOG     WCI  20
GRAND RAPIDS   CLOUDY    28  27  96 S9        29.73F WCI  19
CRANE LAKE     CLOUDY    16  16 100 CALM      29.73S
ORR            CLOUDY    28  21  74 CALM      29.68F
COOK           CLOUDY    30  25  80 S3        29.71S
WALKER         FAIR      31  26  84 S3        29.67F
$$
MNZ012-019>021-037-190800-
   Northeast Minnesota

CITY           SKY/WX    TMP DP  RH WIND       PRES   REMARKS
DULUTH         CLOUDY    32  29  88 SW8       29.76S FOG     WCI  25
ELY            CLOUDY    25  23  93 CALM      29.72F
HIBBING        CLOUDY    22  21  96 S3        29.73F
EVELETH        CLOUDY    19  18  93 CALM      29.74F FOG
DULUTH HARBOR  CLOUDY    30  27  86 CALM      29.80S FOG
TWO HARBORS    CLOUDY    28  25  86 CALM      29.75F
SILVER BAY     CLOUDY    21  21 100 CALM      29.75F
G MARAIS ARPRT CLEAR     23  19  86 CALM      29.76S
$$
MNZ029>031-032-039>041-046>048-054>057-064-190800-
   West Central Minnesota

CITY           SKY/WX    TMP DP  RH WIND       PRES   REMARKS
FERGUS FALLS   CLOUDY    30  27  86 SE10      29.72F WCI  21
WHEATON        CLEAR     30  30 100 SE13      29.69F WCI  20
MORRIS         HVY SNOW  28  28 100 SE12      29.69F VSB<1/4 WCI  18
ALEXANDRIA     FOG       28  28 100 SE7       29.71F VSB 1/4 WCI  21
ELBOW LAKE     FAIR      29  29 100 E13       29.69F FOG     WCI  18
WADENA           N/A     21  21 100 SE3       29.69F FOG
GLENWOOD       FOG       28  27  93 SE5       29.72F VSB<1/4 WCI  23
APPLETON       FOG       28  27  93 SE8       29.71F VSB 1/2 WCI  20
ORTONVILLE     MIX PCPN  25  21  86 CALM      29.69F VSB 1/4
MADISON        FOG       27  27 100 SE8       29.71F VSB 1/2 WCI  18
WILLMAR        FOG       25  25 100 SE6       29.76F VSB 1/4 WCI  18
$$
MNZ033>034-036-042>043-049>051-058-059-190800-
   Central Minnesota

CITY           SKY/WX    TMP DP  RH WIND       PRES   REMARKS
ST CLOUD       FOG       30  30 100 SE5       29.77F VSB 1/4 WCI  25
SAUK CENTRE    SNOW      28  27  99 SE6       29.73F VSB<1/4 WCI  21
PAYNESVILLE    FOG       29  29 100 S7        29.76F VSB 1/2 WCI  22
AITKIN         FOG       34  28  80 S7        29.72F VSB 1   WCI  28
PINE RIVER     CLOUDY    25  25 100 SE6       29.75F FOG     WCI  18
BRAINERD       CLOUDY    30  30 100 S8        29.73F FOG     WCI  22
STAPLES        CLOUDY    27  27 100 SE7       29.71F FOG     WCI  19
LONG PRAIRIE   SNOW      28  28 100 SE9       29.73F VSB 1/4 WCI  20
LITTLE FALLS   FOG       30  30 100 SE5       29.75F VSB 1/4 WCI  25
LITCHFIELD     CLOUDY    32  32 100 CALM      29.77F FOG
BUFFALO        CLOUDY    32  31  96 SE5       29.80S FOG     WCI  27
MAPLE LAKE     FOG       30  30 100 S5        29.79F VSB 1/4 WCI  25
HUTCHINSON     CLOUDY    32  32 100 SE3       29.79F FOG
$$
MNZ037-044-045-052-053-190800-
   East Central Minnesota

CITY           SKY/WX    TMP DP  RH WIND       PRES   REMARKS
PRINCETON      CLOUDY    30  28  93 SE3       29.79F FOG
MORA           FOG       30  28  93 S3        29.80F VSB 1/2
CAMBRIDGE      CLOUDY    32  27  80 SE5       29.78S HAZE    WCI  27
RUSH CITY      CLOUDY    28  28 100 S6        29.81S FOG     WCI  22
MOOSE LAKE     CLOUDY    32  30  93 S6        29.76F FOG     WCI  26
HINCKLEY       CLOUDY    30  30 100 S5        29.79F FOG     WCI  25
CLOQUET        CLOUDY    30  28  93 S5        29.76S FOG     WCI  25
MCGREGOR       CLOUDY    30  30 100 S7        29.75F WCI  23
$$
MNZ071>073-080-081-089-090-097-098-190800-
   Southwest Minnesota

CITY           SKY/WX    TMP DP  RH WIND       PRES   REMARKS
MONTEVIDEO     FOG       27  27 100 S6        29.74F VSB 1   WCI  20
GRANITE FALLS  CLOUDY    32  32  99 S8        29.75F WCI  25
CANBY          CLOUDY    40  37  86 SW8G16    29.70F
MARSHALL       CLEAR     38  35  89 SW21      29.72F
REDWOOD FALLS  CLOUDY    34  31  88 S8        29.76F WCI  27
OLIVIA         CLOUDY    32  30  93 S10       29.75F FOG     WCI  24
PIPESTONE      CLEAR     37  36  93 SW14      29.74F
WINDOM           N/A     36  34  93 SW7       29.79S
WORTHINGTON    CLEAR     38  34  85 S17       29.78S
JACKSON        CLEAR     36  32  87 S14       29.80F
TRACY          CLEAR     39  36  88 SW18G25   29.74F
SLAYTON        CLEAR     36  34  93 S22       29.76F
$$
MNZ065>067-074>077-082>085-091>093-190800-
   South Central Minnesota

CITY           SKY/WX    TMP DP  RH WIND       PRES   REMARKS
MANKATO        CLEAR     35  33  92 S9        29.82F WCI  28
NEW ULM        CLEAR     34  32  93 S6        29.79F WCI  29
ST JAMES       CLEAR     34  34 100 S8        29.82S WCI  27
FAIRMONT       CLEAR     35  33  92 S12       29.82F WCI  27
GLENCOE        CLOUDY    35  35  99 S8        29.79F WCI  29
FARIBAULT      CLEAR     34  30  86 S5        29.85S WCI  30
OWATONNA       CLEAR     34  30  86 S13       29.84F WCI  25
WASECA         CLEAR     34  32  93 S10       29.86S WCI  26
ALBERT LEA     CLEAR     36  34  93 S8        29.85F
$$
MNZ078>079-086>088-094>096-190800-
   Southeast Minnesota

CITY           SKY/WX    TMP DP  RH WIND       PRES   REMARKS
ROCHESTER      CLEAR     31  31 100 S10       29.87S WCI  22
RED WING       CLOUDY    30  28  93 E3        29.86S FOG
STANTON        CLOUDY    36  32  85 S8        29.83S
DODGE CENTER   CLEAR     30  28  93 CALM      29.86S
WINONA         CLEAR     34  32  93 SE5       29.91F WCI  30
AUSTIN         CLEAR     32  30  93 S6        29.87S FOG     WCI  26
PRESTON        CLEAR     32  30  93 S15       29.89S FOG     WCI  22
$$
ABBREVIATIONS USED IN REMARKS
   TC - TEMPERATURES IN CELSIUS
  WCI - WIND CHILL INDEX
   HX - HEAT INDEX
  VSB - VISIBILITY
$$



USA.gov is the U.S. government's official web portal to all federal, state and local government web resources and services.